User: anonymous   Login
Location: Mentone
(34.5413°N, 85.5351°W)
Time: 18:52:00
(UTC-06:00)
Language:

ADEOS Rocket - Orbit

View from above orbital plane
View from above orbital plane
View from above satellite
View from above satellite

Ground track
Ground track

The orbit data is extracted from the following two-line orbital elements,

1 24279U 96046C   14326.51853792  .00000026  00000-0  76615-4 0  7608
2 24279 098.7269 014.3133 0300778 161.1504 331.5359 13.47002793898005
Epoch (UTC): 22 November 2014 12:26:41
Eccentricity: 0.0300778
inclination: 98.7269°
perigee height: 859 km
apogee height: 1308 km
right ascension of ascending node: 14.3133°
argument of perigee: 161.1504°
revolutions per day: 13.47002793
mean anomaly at epoch: 331.5359°
orbit number at epoch: 89800

The dashed part of the orbit path shows where the satellite is in the earth's shadow,  

DLR